Location: F?ge?el
(45.8833°N, 22.5833°E)
Time: 18:38:49
(UTC+00:00)

Daily predictions for brighter satellites

Satellite Brightness Start Highest point End
(mag) Time Altitude Azimuth Time Altitude Azimuth Time Altitude Azimuth
Cosmos 2227 Rocket 2.6 16:28:09 10° NNW 16:33:49 74° WSW 16:39:27 10° SSE
USA 306 3.8 16:32:15 10° SSW 16:36:05 33° SE 16:39:54 10° ENE
USA 308 3.8 16:36:05 10° SSW 16:39:56 33° SE 16:43:47 10° ENE
FALCON 9 DEB 4.0 16:37:12 10° SSW 16:40:02 29° SE 16:42:52 10° ENE
Cosmos 1939 Rocket 3.5 16:36:26 10° S 16:40:15 60° W 16:44:05 10° NNW
Cosmos 1743 Rocket 3.6 16:37:23 10° S 16:41:39 61° E 16:46:01 10° NNE
Cosmos 1850 Rocket 4.0 16:36:47 10° NNW 16:41:57 66° ENE 16:47:07 10° SSE
Cosmos 1805 Rocket 4.2 16:38:57 10° SSE 16:42:50 33° E 16:46:46 10° NNE
Meteor 1-27 Rocket 4.0 16:37:41 10° N 16:42:59 44° ENE 16:48:15 10° SE
H-2A R/B 3.0 16:40:12 10° N 16:44:11 49° WNW 16:48:07 10° SW
Cosmos 1745 Rocket 4.4 16:38:38 10° SSW 16:44:44 71° W 16:50:53 10° N
H-2A R/B 2.3 16:40:38 10° SSE 16:45:54 55° ENE 16:51:13 10° N
ARGOS 3.6 16:40:56 10° SE 16:45:56 39° ENE 16:50:57 10° N
Aureole 1 Rocket 4.1 16:39:57 10° NNW 16:47:36 82° ENE 16:53:30 10° SSE
COSMOS 2455 3.1 16:42:01 10° NNW 16:47:51 49° NE 16:53:38 10° SE
Cosmos 2278 4.1 16:42:59 10° S 16:48:13 40° ESE 16:53:30 10° NE
Cosmos 2228 Rocket 3.1 16:46:38 10° N 16:51:08 60° E 16:55:33 10° SSE
Cosmos 2297 Rocket 3.7 16:45:57 10° NW 16:51:15 43° WSW 16:56:32 10° S
Cosmos 1862 3.4 16:48:02 10° S 16:52:02 85° W 16:56:07 10° N
Cosmos 1271 Rocket 3.9 16:53:06 10° NNE 16:56:02 21° ENE 16:58:56 10° ESE
CZ-2C R/B 3.4 16:52:13 10° NNE 16:57:08 31° E 17:01:55 10° SSE
Cosmos 1709 Rocket 4.0 16:51:56 10° S 16:58:04 86° E 17:04:20 10° N
NOSS 2-1 (C) 4.4 16:53:52 10° NNW 16:58:38 54° NE 17:05:16 10° SE
FALCON 9 DEB 3.2 16:55:39 10° SW 16:58:44 49° SE 17:01:18 14° ENE
CSL-04 Debris 4.5 16:53:50 10° SE 16:58:57 45° ENE 17:04:08 10° N
CZ-2D R/B 4.0 16:55:56 10° S 16:59:39 56° W 17:03:25 10° NNW
Cosmos 2181 Rocket 4.1 16:54:54 10° N 17:01:21 67° E 17:07:44 10° SSE
HJ-1C 3.9 16:58:23 10° SE 17:01:29 37° ENE 17:04:36 10° N
CZ-2C R/B 3.8 16:56:23 10° S 17:02:10 66° W 17:07:50 10° NNW
Cosmos 1812 3.4 16:58:28 10° NNW 17:02:15 59° W 17:06:01 10° S
Gbstr 26 Del rocket 3.7 16:58:40 10° SSW 17:02:43 41° SE 17:06:57 13° ENE
NOSS 2-1 (D) 4.3 16:59:55 10° NNW 17:04:45 60° NE 17:11:34 10° SE
Cosmos 1666 Rocket 4.4 17:01:09 10° SE 17:04:46 26° E 17:08:24 10° NNE
Cosmos 2084 3.4 17:00:43 10° SSW 17:04:52 65° SE 17:09:09 10° NE
Cosmos 1331 Rocket 4.2 17:00:13 10° S 17:05:18 50° ESE 17:10:23 10° NNE
CSL-04 Rocket 3.9 17:01:05 10° SE 17:06:25 49° ENE 17:11:44 10° N
TSX-5 4.2 17:02:33 10° NNW 17:07:02 46° NE 17:10:30 11° SE
Cosmos 1689 Rocket 2.2 17:04:17 10° NNE 17:07:04 45° E 17:09:50 10° S
Cosmos 292 Rocket 3.7 17:05:26 10° SSW 17:10:11 86° ESE 17:14:58 10° NNE
BREEZE-M DEB (TANK) 3.9 17:09:01 10° SSW 17:14:00 22° SSE 17:15:40 16° ESE
Cosmos 1242 Rocket 4.0 17:11:36 10° NNW 17:14:57 40° W 17:18:19 10° SSW
Cosmos 1818 4.4 17:10:49 10° NW 17:16:09 54° WSW 17:21:26 10° SSE
YAOGAN 1 2.7 17:15:04 10° S 17:19:23 80° WSW 17:23:44 10° NNW
COSMO-SKYMED 1 3.9 17:15:21 10° N 17:19:28 43° WNW 17:23:33 10° SW
Okean-O 2.7 17:15:53 10° SSE 17:20:20 82° WSW 17:24:48 10° NNW
Helios 1A Rocket 2.8 17:16:47 10° SSE 17:20:50 67° ENE 17:24:52 10° N
FALCON 9 DEB 2.8 17:19:56 10° SW 17:23:07 72° SE 17:24:44 26° ENE
Cosmos 1980 Rocket 2.1 17:17:54 10° SSW 17:23:33 80° ESE 17:29:16 10° NNE
Cosmos 220 Rocket 3.8 17:19:40 10° SSW 17:23:51 77° ESE 17:28:06 10° NNE
SL-4 R/B 2.0 17:22:08 10° WSW 17:25:41 58° NNW 17:27:45 22° NE
APEX 4.2 17:24:46 10° N 17:26:40 19° NE 17:26:40 19° NE
Sich 1 2.9 17:26:49 10° S 17:31:10 82° E 17:35:36 10° N
Lacrosse 5 rocket 2.1 17:27:06 10° WNW 17:31:25 53° SW 17:35:19 11° SSE
FALCON 9 DEB 2.9 17:28:28 10° WSW 17:31:38 81° NNW 17:33:00 31° NE
Cosmos 2322 Rocket 3.2 17:29:02 10° SSE 17:33:02 23° ESE 17:33:02 23° ESE
Cosmos 1302 Rocket 4.2 17:28:25 10° S 17:33:19 45° ESE 17:38:16 10° NNE
BREEZE-M DEB (TANK) 4.4 17:29:47 10° SSW 17:33:34 47° SE 17:46:50 10° ENE
Cosmos 2227 4.3 17:27:55 10° NNW 17:33:39 58° ENE 17:38:28 15° SE
Cosmos 44 4.2 17:30:16 10° NW 17:35:37 57° WSW 17:40:52 10° SSE
Cosmos 968 Rocket 4.1 17:32:05 10° N 17:36:58 37° ENE 17:39:07 26° ESE
CZ-4B R/B 4.1 17:35:03 10° NNW 17:37:15 19° WNW 17:39:29 10° WSW
Cosmos 1867 3.5 17:36:10 10° SSW 17:41:37 88° SE 17:47:07 10° NE
Cosmos 1707 Rocket 3.4 17:38:09 10° N 17:42:35 84° ENE 17:46:58 10° S
Meteor 1-22 4.5 17:39:13 10° S 17:44:36 72° E 17:49:57 10° NNE
Meteor 1-20 Rocket 4.0 17:40:35 10° S 17:45:59 67° E 17:51:25 10° NNE
Cosmos 1633 Rocket 3.0 17:42:51 10° S 17:47:11 61° E 17:51:34 10° NNE
Cosmos 1437 2.6 17:44:36 10° NNW 17:47:29 70° W 17:49:16 20° S
USA 234 3.3 17:42:03 13° NE 17:48:02 83° NW 17:54:35 10° WSW
Cosmos 1697 Rocket 4.1 17:42:50 10° WSW 17:48:07 39° NW 17:53:25 10° NNE
ERS-2 3.2 17:45:55 10° N 17:49:26 46° WNW 17:52:55 10° SW
SL-16 R/B 2.5 17:47:11 10° S 17:52:26 40° ESE 17:55:08 25° NE
Meteor 1-19 Rocket 4.3 17:49:32 10° N 17:55:30 60° ENE 18:00:06 17° SSE
Cosmos 2327 Rocket 4.5 17:50:48 10° S 17:57:04 63° E 18:03:18 10° NNE
MOS 1 4.5 17:56:45 30° SE 17:59:12 50° ENE 18:04:42 10° N
USA 305 3.1 17:57:26 10° WSW 18:01:41 66° NNW 18:03:07 39° NE
Cosmos 2154 Rocket 3.9 17:57:20 10° S 18:03:31 70° E 18:09:43 10° NNE
Nadezhda 3 Rocket 3.9 17:57:29 10° N 18:03:51 72° E 18:10:12 10° SSE
Ariane Rocket 3.1 18:03:12 42° ESE 18:04:29 53° ENE 18:09:27 10° N
SeaSat 1 3.7 17:59:58 10° NNE 18:04:36 41° NW 18:09:12 10° WSW
Resurs 01 Rocket 3.6 18:07:05 16° NNE 18:07:05 16° NNE 18:08:24 10° NNE
DMSP B5D2-2 3.9 18:00:13 10° NNE 18:05:30 77° ESE 18:10:43 10° S
CZ-4 R/B 4.1 18:03:02 10° SW 18:05:52 20° W 18:08:43 10° NW
IRS-1A Rocket 4.3 18:04:36 32° SE 18:07:10 60° ENE 18:12:42 10° N
USA 307 3.2 18:05:16 10° WSW 18:09:30 62° NNW 18:10:34 45° NNE
Cosmos 2263 Rocket 2.3 18:04:35 10° NNW 18:10:10 74° WSW 18:14:09 19° SSE
Cosmos 2074 Rocket 4.3 18:06:23 10° SSW 18:12:38 68° W 18:18:53 10° N
Cosmos 1610 Rocket 4.3 18:08:32 10° S 18:14:40 84° E 18:20:57 10° N
FALCON 9 DEB 4.1 18:12:47 10° W 18:15:24 41° NW 18:15:24 41° NW
USA 306 3.4 18:11:43 10° WSW 18:15:55 55° NNW 18:16:45 46° NNE
Meteor 1-14 Rocket 4.1 18:10:45 10° S 18:16:15 58° E 18:21:41 10° NNE
Cosmos 1470 Rocket 3.9 18:14:43 10° S 18:20:13 52° NNE 18:23:40 10° NNE
USA 308 3.4 18:15:36 10° WSW 18:19:48 55° NNW 18:20:27 49° N
Cosmos 1515 3.9 18:18:44 10° NNW 18:22:18 68° WNW 18:22:18 68° WNW
SJ-6B 3.1 18:28:39 71° WSW 18:28:40 71° W 18:32:46 10° NNW
Meteor 2-4 Rocket 3.7 18:23:33 10° N 18:29:18 66° ENE 18:29:44 64° ESE
OBJECT-B 3.4 18:32:13 15° NNW 18:32:13 15° NNW 18:32:52 10° NNW
Cosmos 1295 Rocket 4.4 18:23:54 10° S 18:30:13 89° W 18:36:30 10° N
Cosmos 1932 4.4 18:24:28 10° SSW 18:30:58 80° ESE 18:33:45 37° NE
COSMOS 2455 4.3 18:28:16 10° NW 18:33:36 34° WSW 18:38:54 10° S
GP-B 3.3 18:33:07 54° SSW 18:33:58 69° W 18:38:24 10° N
Meteor 1-18 Rocket 4.5 18:28:14 10° NNW 18:34:10 74° W 18:38:04 22° S
CZ-2C R/B 3.9 18:32:19 10° N 18:37:30 41° WNW 18:42:33 10° SW
Cosmos 1461 3.4 18:33:21 10° SW 18:37:22 64° SW 18:37:22 64° SW
Okean 1 4.2 18:34:55 10° NNW 18:38:47 48° W 18:38:49 48° W
Cosmos 44 Rocket 3.7 18:36:46 10° NNW 18:41:15 57° N 18:41:15 57° N
ATLAS 5 CENTAUR R/B 4.3 18:35:21 10° W 18:44:04 27° NW 18:46:35 16° N
Cosmos 2278 Rocket 4.3 18:43:03 10° N 18:44:39 13° NNE 18:44:39 13° NNE
BREEZE-M DEB (TANK) 4.0 18:45:01 10° WNW 18:46:16 28° NW 18:46:16 28° NW
Cosmos 2341 Rocket 3.8 18:46:43 55° S 18:48:14 81° E 18:54:33 10° N
Cosmos 1844 Rocket 3.3 18:42:55 10° NNW 18:47:04 43° NNE 18:47:04 43° NNE
Gbstr 26 Del rocket 3.7 18:44:53 10° W 18:49:30 62° NNW 18:49:30 62° NNW
Cosmos 1486 Rocket 4.3 18:44:49 10° NNW 18:50:03 64° WSW 18:50:25 62° SW
Cosmos 962 Rocket 4.4 18:43:58 10° S 18:50:07 88° W 18:56:26 10° N
SPOT 3 Rocket 4.4 18:53:33 41° N 18:53:33 41° N 18:56:59 10° N
Cosmos 1980 Rocket 4.5 19:04:02 10° W 19:08:15 21° NW 19:12:31 10° N
Cosmos 2322 Rocket 3.2 19:11:21 10° SW 19:15:03 40° WSW 19:15:03 40° WSW
MOS 1-B Rocket 4.5 19:15:32 10° NNE 19:30:54 12° SSW 19:31:25 10° SSW
USA 234 4.2 19:29:23 37° N 19:30:37 40° NNW 19:36:37 10° W
SL-16 R/B 3.6 19:31:24 10° WSW 19:36:35 36° NW 19:37:13 35° NW
Resurs 01 Rocket 4.4 19:44:38 14° NNW 19:44:38 14° NNW 19:45:19 10° NNW
